SL-16 R/B

基本信息
目录编号:
27006
目录名称:
SL-16 R/B
国际标识:
2001-056F
轨道中心:
EARTH
物体状态:
在轨
发射日期:
2001-12-10 UTC
国别:
俄罗斯(独联体) (CIS)
轨道信息
数据来源: 国际轨道数据
星历时间: 2026-07-13T19:40:47+0800
半长轴: 7373.78km
偏心率: 0.0014883
轨道倾角: 99.782°
近地点辐角: 27.406°
升交点赤经: 2.519°
平近点角: 39.612°
近地点: 984.668km
远地点: 1006.618km
周期: 105.026分钟
每日圈数: 13.71095
详细信息
发射场:
TTMTR
轨道高度:
LEO
数据来源:
AOE Integration Group
参考系:
TEME
时间系统:
UTC
历元类型:
SGP4
2D轨道图
3D轨道图
轨道高度分析图
轨道倾角分析图
轨道综合分析图
查看轨道综合分析图